| time (UTC) | temp C | wind direction | speed KPH | gust KPH | rain 1hr cm | rain 24hr cm | rain mn cm | humidity % | barometer mb |
| 20260504050016 | 18 | 203 | 12.9 | 17.7 | 0.00 | 0.00 | 0.00 | 63 | 1015.6 |
| 20260504045016 | 18 | 203 | 12.9 | 20.9 | 0.00 | 0.00 | 0.00 | 63 | 1015.7 |
| 20260504044016 | 18 | 203 | 12.9 | 20.9 | 0.00 | 0.00 | 0.00 | 62 | 1015.8 |
| 20260504043016 | 19 | 203 | 11.3 | 20.9 | 0.00 | 0.00 | 0.00 | 61 | 1015.8 |
| 20260504042036 | 19 | 203 | 11.3 | 22.5 | 0.00 | 0.00 | 0.00 | 61 | 1016.0 |
| 20260504041016 | 19 | 203 | 12.9 | 22.5 | 0.00 | 0.00 | 0.00 | 61 | 1016.1 |
| 20260504040016 | 19 | 203 | 12.9 | 20.9 | 0.00 | 0.00 | 0.00 | 60 | 1016.0 |
| 20260504035016 | 19 | 203 | 12.9 | 19.3 | 0.00 | 0.00 | 0.00 | 59 | 1016.1 |
| 20260504034016 | 19 | 203 | 11.3 | 17.7 | 0.00 | 0.00 | 0.00 | 59 | 1016.0 |
| 20260504033016 | 19 | 203 | 12.9 | 19.3 | 0.00 | 0.00 | 0.00 | 58 | 1015.9 |
| 20260504032016 | 20 | 203 | 11.3 | 17.7 | 0.00 | 0.00 | 0.00 | 58 | 1015.9 |
| 20260504031016 | 20 | 203 | 11.3 | 19.3 | 0.00 | 0.00 | 0.00 | 58 | 1015.9 |
| 20260504030016 | 20 | 203 | 11.3 | 17.7 | 0.00 | 0.00 | 0.00 | 58 | 1015.6 |
| 20260504025016 | 20 | 203 | 9.7 | 14.5 | 0.00 | 0.00 | 0.00 | 58 | 1015.6 |
| 20260504024016 | 20 | 203 | 11.3 | 17.7 | 0.00 | 0.00 | 0.00 | 57 | 1015.6 |
| 20260504023016 | 20 | 203 | 11.3 | 14.5 | 0.00 | 0.00 | 0.00 | 56 | 1015.5 |
| 20260504022016 | 20 | 203 | 11.3 | 16.1 | 0.00 | 0.00 | 0.00 | 55 | 1015.5 |
| 20260504021016 | 20 | 203 | 11.3 | 16.1 | 0.00 | 0.00 | 0.00 | 54 | 1015.5 |
| 20260504020036 | 21 | 203 | 11.3 | 19.3 | 0.00 | 0.00 | 0.00 | 53 | 1015.4 |
| 20260504015016 | 21 | 203 | 11.3 | 16.1 | 0.00 | 0.00 | 0.00 | 51 | 1015.5 |
| 20260504014016 | 21 | 203 | 9.7 | 17.7 | 0.00 | 0.00 | 0.00 | 50 | 1015.5 |
| 20260504013036 | 21 | 203 | 11.3 | 19.3 | 0.00 | 0.00 | 0.00 | 49 | 1015.2 |
| 20260504012016 | 22 | 203 | 12.9 | 20.9 | 0.00 | 0.00 | 0.00 | 48 | 1015.0 |
| 20260504011016 | 22 | 203 | 14.5 | 20.9 | 0.00 | 0.00 | 0.00 | 46 | 1015.0 |
| 20260504010016 | 22 | 203 | 14.5 | 20.9 | 0.00 | 0.00 | 0.00 | 45 | 1015.0 |
| 20260504005036 | 23 | 203 | 11.3 | 17.7 | 0.00 | 0.00 | 0.00 | 45 | 1015.0 |
| 20260504004056 | 23 | 203 | 14.5 | 22.5 | 0.00 | 0.00 | 0.00 | 44 | 1015.0 |
| 20260504003016 | 23 | 203 | 12.9 | 20.9 | 0.00 | 0.00 | 0.00 | 43 | 1015.1 |
| 20260504002016 | 23 | 203 | 16.1 | 27.4 | 0.00 | 0.00 | 0.00 | 42 | 1015.0 |
| 20260504001016 | 24 | 203 | 14.5 | 22.5 | 0.00 | 0.00 | 0.00 | 42 | 1015.2 |
| 20260504000016 | 25 | 203 | 11.3 | 22.5 | 0.00 | 0.00 | 0.00 | 41 | 1015.3 |
| 20260503235036 | 25 | 203 | 14.5 | 24.1 | 0.00 | 0.00 | 0.00 | 40 | 1015.3 |
| 20260503234016 | 25 | 203 | 14.5 | 32.2 | 0.00 | 0.00 | 0.00 | 40 | 1015.4 |
| 20260503233016 | 25 | 203 | 14.5 | 24.1 | 0.00 | 0.00 | 0.00 | 38 | 1015.4 |
| 20260503232036 | 25 | 203 | 14.5 | 22.5 | 0.00 | 0.00 | 0.00 | 39 | 1015.5 |
| 20260503231016 | 25 | 203 | 11.3 | 22.5 | 0.00 | 0.00 | 0.00 | 40 | 1015.7 |
| 20260503230016 | 25 | 180 | 16.1 | 24.1 | 0.00 | 0.00 | 0.00 | 40 | 1015.7 |
| 20260503225036 | 26 | 203 | 12.9 | 25.7 | 0.00 | 0.00 | 0.00 | 38 | 1015.9 |
| 20260503224016 | 26 | 203 | 12.9 | 24.1 | 0.00 | 0.00 | 0.00 | 38 | 1015.8 |
| 20260503223016 | 26 | 203 | 16.1 | 29.0 | 0.00 | 0.00 | 0.00 | 36 | 1015.9 |
| 20260503222036 | 26 | 203 | 14.5 | 27.4 | 0.00 | 0.00 | 0.00 | 37 | 1016.0 |
| 20260503221016 | 26 | 203 | 12.9 | 22.5 | 0.00 | 0.00 | 0.00 | 39 | 1016.0 |
| 20260503220016 | 26 | 225 | 9.7 | 24.1 | 0.00 | 0.00 | 0.00 | 37 | 1016.2 |
| 20260503215036 | 26 | 225 | 9.7 | 22.5 | 0.00 | 0.00 | 0.00 | 36 | 1016.5 |
| 20260503214016 | 26 | 203 | 17.7 | 27.4 | 0.00 | 0.00 | 0.00 | 37 | 1016.5 |
| 20260503213016 | 26 | 203 | 14.5 | 22.5 | 0.00 | 0.00 | 0.00 | 37 | 1016.8 |
| 20260503212016 | 26 | 203 | 12.9 | 24.1 | 0.00 | 0.00 | 0.00 | 37 | 1016.8 |
| 20260503211016 | 27 | 203 | 14.5 | 25.7 | 0.00 | 0.00 | 0.00 | 36 | 1017.1 |
| 20260503210016 | 27 | 203 | 14.5 | 24.1 | 0.00 | 0.00 | 0.00 | 37 | 1017.3 |
| 20260503205016 | 27 | 203 | 4.8 | 14.5 | 0.00 | 0.00 | 0.00 | 37 | 1017.5 |
| 20260503204016 | 27 | 203 | 3.2 | 16.1 | 0.00 | 0.00 | 0.00 | 36 | 1017.6 |
| 20260503203016 | 27 | 203 | 16.1 | 25.7 | 0.00 | 0.00 | 0.00 | 36 | 1017.9 |
| 20260503202036 | 27 | 225 | 8.0 | 20.9 | 0.00 | 0.00 | 0.00 | 38 | 1018.2 |
| 20260503201016 | 27 | 270 | 3.2 | 14.5 | 0.00 | 0.00 | 0.00 | 37 | 1018.4 |
| 20260503200016 | 27 | 225 | 1.6 | 8.0 | 0.00 | 0.00 | 0.00 | 35 | 1018.3 |
| 20260503195035 | 27 | 203 | 11.3 | 29.0 | 0.00 | 0.00 | 0.00 | 37 | 1018.6 |
| 20260503194016 | 27 | 270 | 1.6 | 6.4 | 0.00 | 0.00 | 0.00 | 35 | 1018.6 |
| 20260503193016 | 27 | 225 | 4.8 | 19.3 | 0.00 | 0.00 | 0.00 | 36 | 1018.9 |
| 20260503192015 | 27 | 203 | 14.5 | 27.4 | 0.00 | 0.00 | 0.00 | 36 | 1019.0 |
| 20260503191016 | 27 | 270 | 3.2 | 11.3 | 0.00 | 0.00 | 0.00 | 35 | 1019.3 |
| 20260503190016 | 27 | 203 | 9.7 | 22.5 | 0.00 | 0.00 | 0.00 | 37 | 1019.5 |
| 20260503185016 | 27 | 203 | 6.4 | 22.5 | 0.00 | 0.00 | 0.00 | 37 | 1019.5 |
| 20260503184016 | 27 | 203 | 4.8 | 12.9 | 0.00 | 0.00 | 0.00 | 41 | 1019.7 |
| 20260503183016 | 27 | 225 | 4.8 | 16.1 | 0.00 | 0.00 | 0.00 | 39 | 1019.9 |
| 20260503182036 | 27 | 225 | 4.8 | 16.1 | 0.00 | 0.00 | 0.00 | 41 | 1020.0 |
| 20260503181016 | 26 | 225 | 3.2 | 9.7 | 0.00 | 0.00 | 0.00 | 40 | 1020.2 |
| 20260503180016 | 26 | 270 | 3.2 | 12.9 | 0.00 | 0.00 | 0.00 | 41 | 1020.4 |
| 20260503174016 | 26 | 248 | 4.8 | 19.3 | 0.00 | 0.00 | 0.00 | 44 | 1020.7 |
| 20260503173015 | 26 | 270 | 3.2 | 9.7 | 0.00 | 0.00 | 0.00 | 44 | 1021.0 |
| 20260503172016 | 26 | 225 | 1.6 | 4.8 | 0.00 | 0.00 | 0.00 | 49 | 1021.1 |
| 20260503171035 | 25 | 225 | 1.6 | 4.8 | 0.00 | 0.00 | 0.00 | 49 | 1021.3 |
| 20260503131015 | 15 | 0.0 | 0.0 | 0.00 | 0.00 | 0.00 | 76 | 1021.3 | |
| 20260503081036 | 14 | 0.0 | 1.6 | 0.00 | 0.00 | 0.00 | 74 | 1019.9 | |
| 20260503072016 | 14 | 0.0 | 0.0 | 0.00 | 0.00 | 0.00 | 74 | 1020.2 | |
| 20260503071016 | 15 | 0.0 | 0.0 | 0.00 | 0.00 | 0.00 | 73 | 1020.4 | |
| 20260503055016 | 16 | 225 | 1.6 | 8.0 | 0.00 | 0.00 | 0.00 | 68 | 1020.4 |
| 20260503054016 | 16 | 225 | 3.2 | 12.9 | 0.00 | 0.00 | 0.00 | 67 | 1020.4 |
| 20260503053016 | 16 | 203 | 3.2 | 9.7 | 0.00 | 0.00 | 0.00 | 67 | 1020.3 |
| 20260503052016 | 17 | 225 | 4.8 | 12.9 | 0.00 | 0.00 | 0.00 | 67 | 1020.2 |